Regional Weather Roundup
Issued by NWS

Home | Current Version | Previous Version | Graphics & Text | Print | Product List | Glossary On
Versions: 1 2 3 4 5 6 7 8 9 10 11 12 13 14 15 16 17 18 19 20 21 22 23 24 25 26 27 28 29 30 31 32 33 34 35 36 37 38 39 40 41 42 43 44 45 46 47 48 49 50
000
ASUS43 KMPX 171101
RWRMN
WEATHER ROUNDUP FOR MINNESOTA
NATIONAL WEATHER SERVICE TWIN CITIES/CHANHASSEN MN
600 AM CDT WED SEP 17 2014


NOTE: "FAIR" INDICATES FEW OR NO CLOUDS BELOW 12,000 FEET WITH NO
SIGNIFICANT WEATHER AND/OR OBSTRUCTIONS TO VISIBILITY. N/A MEANS
CURRENT SKY AND/OR WEATHER CONDITIONS ARE NOT AVAILABLE.

MNZ060>063-068>070-171200-
   Twin Cities Metro

CITY           SKY/WX    TMP DP  RH WIND       PRES   REMARKS
TWIN CITIES    CLOUDY    57  47  69 S6        29.95S
ST PAUL        CLOUDY    55  49  80 SE7       29.96S
CRYSTAL        CLOUDY    57  48  72 S5        29.94R
BLAINE         CLOUDY    55  52  88 S5        29.94S
LAKEVILLE      CLOUDY    52  48  87 CALM      29.95F
EDEN PRAIRIE   CLOUDY    56  49  77 S6        29.94S
SOUTH ST PAUL  CLOUDY    55  48  77 CALM      29.95S
LAKE ELMO      CLOUDY    52  50  93 S6        29.96F
$$
MNZ001>005-007-008-013>017-022>024-027-028-171200-
   Northwest Minnesota

CITY           SKY/WX    TMP DP  RH WIND       PRES   REMARKS
BEMIDJI        PTCLDY    39  37  91 CALM      29.91S
HALLOCK        PTCLDY    43  39  87 N3        29.91R
ROSEAU         MOCLDY    45  39  81 CALM      29.91S
WARROAD        CLOUDY    48  45  87 CALM      29.92R
THIEF RVR FALL PTCLDY    48  43  81 N3        29.93R
CROOKSTON      CLEAR     45  43  93 N7G16     29.93R
FOSSTON        PTCLDY    43  39  87 CALM      29.92R
DETROIT LAKES  CLEAR     46  45  93 CALM      29.92S
MOORHEAD       CLEAR     46  46 100 CALM      29.91R
PARK RAPIDS    CLEAR     43  40  89 NE3       29.92R
MAHNOMEN       FAIR      48  45  88 CALM      29.91R
$$
MNZ006-009>011-018-025>026-171200-
   North Central Minnesota

CITY           SKY/WX    TMP DP  RH WIND       PRES   REMARKS
BAUDETTE       CLOUDY    48  45  89 NW3       29.91R
FLAG ISLAND    CLOUDY    48  46  93 NE10      29.92R
INTL FALLS     CLOUDY    49  45  86 CALM      29.90R
WASKISH        PTCLDY    45  43  93 CALM      29.93S
BIG FORK       PTCLDY    39  37  93 CALM      29.92S
LONGVILLE      CLEAR     39  39 100 CALM      29.91S
GRAND RAPIDS   PTCLDY    48  39  71 S3        29.91F
CRANE LAKE     MOCLDY    52  45  76 CALM      29.91F
ORR            MOCLDY    48  43  81 CALM      29.90S
COOK           MOCLDY    46  43  87 NW5       29.93R
WALKER         FAIR      43  40  91 SW3       29.91S
$$
MNZ012-019>021-037-171200-
   Northeast Minnesota

CITY           SKY/WX    TMP DP  RH WIND       PRES   REMARKS
DULUTH         PTCLDY    48  41  76 W6        29.92S
ELY            CLOUDY    48  45  87 SW3       29.91R
HIBBING        PTCLDY    37  35  92 CALM      29.91S FOG
EVELETH        MOCLDY    43  41  93 CALM      29.93R
DULUTH HARBOR  PTCLDY    46  43  87 CALM      29.93S
TWO HARBORS    PTCLDY    41  36  81 CALM      29.91S
SILVER BAY     PTCLDY    43  43 100 CALM      29.90F
GRAND MARAIS     N/A     47  44  90 CALM      29.91S
G MARAIS ARPRT DRIZZLE   45  39  81 CALM      29.91R
$$
MNZ029>031-032-039>041-046>048-054>057-064-171200-
   West Central Minnesota

CITY           SKY/WX    TMP DP  RH WIND       PRES   REMARKS
FERGUS FALLS   CLEAR     52  45  76 CALM      29.92R
WHEATON        CLEAR     41  39  93 CALM      29.93R
MORRIS         CLEAR     46  45  93 SE6       29.90S
ALEXANDRIA     CLEAR     49  46  90 CALM      29.93S
ELBOW LAKE     FAIR      50  47  90 SE5       29.91S
WADENA         CLEAR     41  39  93 CALM      29.92R
GLENWOOD       CLEAR     48  46  93 S3        29.92F
APPLETON       CLEAR     48  46  93 CALM      29.90S
BENSON         CLEAR     48  48 100 S5        29.91F
ORTONVILLE     CLEAR     48  46  93 CALM      29.90S
MADISON        CLEAR     52  48  87 S3        29.90S
WILLMAR        FAIR      52  48  87 CALM      29.94R
$$
MNZ033>034-036-042>043-049>051-058-059-171200-
   Central Minnesota

CITY           SKY/WX    TMP DP  RH WIND       PRES   REMARKS
ST CLOUD       PTCLDY    49  46  90 CALM      29.93S
SAUK CENTRE    FAIR      46  45  99 CALM      29.92F
PAYNESVILLE    PTCLDY    46  45  99 CALM      29.93S
AITKIN         CLEAR     43  37  81 CALM      29.91S HAZE
PINE RIVER     CLEAR     39  37  93 CALM      29.96R
BRAINERD       CLEAR     42  41  96 CALM      29.93S
STAPLES        CLEAR     41  39  93 CALM      29.92R
LONG PRAIRIE   FAIR      43  43 100 CALM      29.92F
LITTLE FALLS   MOCLDY    43  41  93 CALM      29.92F
LITCHFIELD     MOCLDY    54  52  94 CALM      29.94R
BUFFALO        CLOUDY    56  48  75 CALM      29.95S
MAPLE LAKE     MOCLDY    55  51  86 S3        29.94S
$$
MNZ037-044-045-052-053-171200-
   East Central Minnesota

CITY           SKY/WX    TMP DP  RH WIND       PRES   REMARKS
PRINCETON      CLOUDY    48  46  93 CALM      29.94R
MORA           CLEAR     39  37  93 CALM      29.95S FOG
CAMBRIDGE      CLEAR     50  43  76 CALM      29.92S
RUSH CITY      MOCLDY    46  44  93 CALM      29.94S
MOOSE LAKE     CLEAR     37  36  93 CALM      29.91F FOG
HINCKLEY       FAIR      41  41 100 CALM      29.94S FOG
CLOQUET        FAIR      46  41  81 SW5       29.92F
MCGREGOR       CLEAR     41  37  87 CALM      29.93S
$$
MNZ071>073-080-081-089-090-097-098-171200-
   Southwest Minnesota

CITY           SKY/WX    TMP DP  RH WIND       PRES   REMARKS
MONTEVIDEO     CLEAR     52  48  87 CALM      29.92S
GRANITE FALLS  PTCLDY    51  49  93 SE3       29.92F
CANBY          CLEAR     56  49  79 SW8       29.91S
MARSHALL       CLEAR     52  46  82 S8        29.90S
REDWOOD FALLS  CLEAR     53  50  89 S5        29.92S
OLIVIA         PTCLDY    52  48  87 SE5       29.92S
PIPESTONE      CLEAR     50  46  87 SE3       29.92S
WINDOM         CLEAR     52  48  87 S5        29.94S
WORTHINGTON    CLEAR     50  46  87 S6        29.94F
JACKSON        CLEAR     50  46  87 S5        29.95S
TRACY          CLEAR     55  50  83 SW10      29.92S
SLAYTON        CLEAR     49  47  93 CALM      29.93F
$$
MNZ065>067-074>077-082>085-091>093-171200-
   South Central Minnesota

CITY           SKY/WX    TMP DP  RH WIND       PRES   REMARKS
MANKATO        CLOUDY    52  45  76 S7        29.95S
NEW ULM        CLOUDY    54  52  94 S5        29.93F
ST JAMES       CLOUDY    55  50  82 S5        29.95S
FAIRMONT       CLOUDY    52  46  82 S6        29.95S
GLENCOE        MOCLDY    55  48  76 CALM      29.94S
FARIBAULT      MOCLDY    55  46  71 S5        29.96F
OWATONNA       PTCLDY    52  46  82 S5        29.97S
WASECA         MOCLDY    48  43  81 SE3       29.98S
ALBERT LEA     CLOUDY    54  48  82 S5        29.97S
$$
MNZ078>079-086>088-094>096-171200-
   Southeast Minnesota

CITY           SKY/WX    TMP DP  RH WIND       PRES   REMARKS
ROCHESTER      CLOUDY    49  46  90 S5        29.98F
RED WING       CLOUDY    54  48  82 CALM      29.96S
STANTON        CLOUDY    55  48  77 CALM      29.95S
DODGE CENTER   CLOUDY    50  46  87 CALM      29.98S
WINONA         CLOUDY    48  46  93 CALM      29.99S
AUSTIN         CLOUDY    48  46  93 CALM      29.98S
PRESTON        MOCLDY    48  47  97 S5        30.00S
$$
ABBREVIATIONS USED IN REMARKS
   TC - TEMPERATURES IN CELSIUS
  WCI - WIND CHILL INDEX
   HX - HEAT INDEX
  VSB - VISIBILITY
$$


USA.gov is the U.S. government's official web portal to all federal, state and local government web resources and services.